Content
SEND FEEDBACK

Daily
Averages
Monthly
Summary
United States of America

ST. LOUIS - SAINT LOUIS UNIVERSITY, MISSOURI


Home > North America > United States > Missouri
Elevation: 580 feet     Latitude: 38 38N     Longitude: 090 14W

WEATHER
 
SELECT A DAY
Number of Records: 189,040;   Date Range: 1/1/95 - 10/19/14
 
SHARE

PRINT THIS DATA

[ ← Previous Day ]
WEATHER ALMANAC - APRIL 24, 2013
[ Next Day → ]
[ °C ]   °F
Weather ElementAverageHighLow
Temperature43.6 °F53.1 °F (4:53 pm)39 °F (7:53 am)
Dewpoint33.4 °F37.4 °F (2:12 am)25 °F (4:53 pm)
Humidity70.2 %93 % (2:12 am)34 % (4:53 pm)
Barometer30.15 in30.26 in (9:53 pm)30.01 in (2:30 am)
Wind Speed11.3 mph20.7 mph (7:53 am)
Wind Gust28.8 mph (10:53 am)
Weather ElementAverage
Visibility9.7 mi
Wind DirectionW (269 °)

Weather ElementTotal
Precipitation0.07 in
Heating Degree Days19 (Base 65)
Averaged from 30 records on April 24, 2013
WEATHER CONDITIONS BREAKOUT
WIND DIRECTION BREAKOUT
WEATHER BY HOUR - APRIL 24, 2013
[ °C ]   °F
Local TimeTemperatureDewpointHumidityBarometerVisibilityWind DirectionWind SpeedGust SpeedPrecipitationEventsConditions
1:53 AM39.9 °F37.0 °F89 %30.02 in8.0 miNNW (330°)11.5 mph0.04 inRainRain
2:12 AM39.2 °F37.4 °F93 %30.02 in7.0 miNNW (330°)11.5 mph20.7 mph0.00 inRainRain
2:30 AM39.2 °F37.4 °F93 %30.01 in9.0 miNNW (340°)12.7 mph0.00 inRainRain
2:41 AM39.2 °F37.4 °F93 %30.02 in10.0 miNW (320°)9.2 mph0.00 inRainRain
2:53 AM41.0 °F37.0 °F86 %30.03 in10.0 miNNW (330°)13.8 mph0.00 inRainRain
3:53 AM41.0 °F36.0 °F82 %30.04 in10.0 miNW (320°)12.7 mph0.00 inRainRain
4:53 AM41.0 °F36.0 °F82 %30.04 in10.0 miNNW (330°)19.6 mph24.2 mph0.00 inRainRain
5:53 AM39.9 °F35.1 °F83 %30.04 in10.0 miNNW (330°)15.0 mph0.00 inRainRain
6:53 AM39.9 °F35.1 °F83 %30.08 in10.0 miNW (310°)15.0 mph24.2 mph0.00 inRainRain
7:41 AM39.2 °F35.6 °F87 %30.12 in8.0 miNW (320°)18.4 mph24.2 mph0.01 inRainRain
7:53 AM39.0 °F35.1 °F86 %30.14 in10.0 miNW (320°)20.7 mph26.5 mph0.01 inRainRain
8:08 AM39.2 °F33.8 °F81 %30.14 in10.0 miNW (310°)16.1 mph0.00 inRainRain
8:38 AM39.2 °F35.6 °F87 %30.14 in10.0 miNW (320°)16.1 mph0.00 inRainRain
8:53 AM39.0 °F34.0 °F82 %30.16 in10.0 miWNW (300°)13.8 mph0.00 inRainRain
9:53 AM39.9 °F33.1 °F77 %30.19 in10.0 miNW (310°)19.6 mph25.3 mph0.00 inOvercast
10:53 AM43.0 °F35.1 °F74 %30.18 in10.0 miNW (320°)17.3 mph28.8 mph0.01 inMostly Cloudy
11:37 AM42.8 °F33.8 °F70 %30.18 in10.0 miNW (310°)16.1 mphMostly Cloudy
11:53 AM45.0 °F33.1 °F63 %30.19 in10.0 miNW (310°)18.4 mph24.2 mphMostly Cloudy
12:53 PM46.9 °F30.9 °F54 %30.19 in10.0 miWNW (290°)10.4 mph19.6 mphPartly Cloudy
1:53 PM48.9 °F32.0 °F52 %30.20 in10.0 miNW (310°)11.5 mph18.4 mphMostly Cloudy
2:53 PM50.0 °F30.9 °F48 %30.21 in10.0 miNW (310°)6.9 mph16.1 mphPartly Cloudy
3:53 PM52.0 °F30.0 °F43 %30.20 in10.0 miWNW (300°)8.1 mphClear
4:53 PM53.1 °F25.0 °F34 %30.20 in10.0 miSW (230°)6.9 mphClear
5:53 PM53.1 °F27.0 °F37 %30.19 in10.0 miCalmClear
6:53 PM52.0 °F28.0 °F40 %30.20 in10.0 miWSW (240°)4.6 mphClear
7:53 PM48.9 °F27.0 °F43 %30.22 in10.0 miWSW (250°)4.6 mphClear
8:53 PM48.9 °F28.0 °F44 %30.23 in10.0 miCalmClear
9:53 PM46.0 °F33.1 °F61 %30.26 in10.0 miCalmClear
10:53 PM43.0 °F36.0 °F76 %30.26 in10.0 miSouth (190°)3.5 mphClear
11:53 PM39.9 °F35.1 °F83 %30.26 in10.0 miSouth (190°)3.5 mphClear
Hourly data recorded from KCPS, located miles away from St. Louis - Saint Louis University, Missouri







STORIES FROM OUR PARTNERS